SAS126 ESMS-ESSA

Flight info

Callsign SAS126
Flight time 0h 54m
Altitude 39000
Route NEXIL N851 ROXEN DCT MIKNA N851 PELUP Z226 NILUG
Aircraft A20N/M-SDE3FGIJ1RWXY/ALB1

Departure

Time 2026-05-07 17:52
Airport Malmö Sturup Airport (ESMS)

Arrival

Time 2026-05-07 18:46
Airport Stockholm-Arlanda Airport (ESSA)
Time Latitude Longitude Altitude Speed Heading
2026-05-07 17:36 55.54094 13.36770 231 ft 0 kts 173°
2026-05-07 17:45 55.54104 13.36768 231 ft 2 kts 171°
2026-05-07 17:46 55.54118 13.36764 231 ft 1 kts 173°
2026-05-07 17:46 55.54128 13.36763 231 ft 2 kts 167°
2026-05-07 17:46 55.54142 13.36753 231 ft 2 kts 148°
2026-05-07 17:46 55.54154 13.36736 231 ft 2 kts 131°
2026-05-07 17:47 55.54162 13.36717 232 ft 0 kts 116°
2026-05-07 17:47 55.54165 13.36706 232 ft 1 kts 113°
2026-05-07 17:47 55.54165 13.36705 232 ft 0 kts 114°
2026-05-07 17:49 55.54162 13.36722 231 ft 3 kts 103°
2026-05-07 17:49 55.54164 13.36793 231 ft 7 kts 84°
2026-05-07 17:49 55.54170 13.36894 230 ft 9 kts 83°
2026-05-07 17:49 55.54179 13.37024 229 ft 12 kts 79°
2026-05-07 17:50 55.54206 13.37163 228 ft 7 kts 82°
2026-05-07 17:50 55.54212 13.37251 228 ft 7 kts 82°
2026-05-07 17:50 55.54219 13.37357 227 ft 9 kts 83°
2026-05-07 17:50 55.54227 13.37474 227 ft 5 kts 84°
2026-05-07 17:51 55.54217 13.37501 227 ft 0 kts 175°
2026-05-07 17:51 55.54170 13.37509 227 ft 29 kts 173°
2026-05-07 17:51 55.53673 13.37613 237 ft 110 kts 173°
2026-05-07 17:51 55.52700 13.37816 375 ft 160 kts 175°
2026-05-07 17:52 55.51625 13.38105 1148 ft 161 kts 161°
2026-05-07 17:52 55.50851 13.39387 1925 ft 160 kts 104°
2026-05-07 17:52 55.50891 13.41334 2487 ft 167 kts 61°
2026-05-07 17:52 55.51694 13.42840 2970 ft 182 kts 37°
2026-05-07 17:53 55.52710 13.44383 3482 ft 204 kts 40°
2026-05-07 17:53 55.53773 13.46113 4231 ft 216 kts 41°
2026-05-07 17:53 55.54845 13.47890 5267 ft 215 kts 43°
2026-05-07 17:53 55.55909 13.49661 6281 ft 215 kts 43°
2026-05-07 17:54 55.57026 13.51377 7189 ft 220 kts 34°
2026-05-07 17:54 55.58412 13.52789 7842 ft 239 kts 28°
2026-05-07 17:54 55.59925 13.54156 8462 ft 257 kts 27°
2026-05-07 17:54 55.61553 13.55634 9188 ft 272 kts 27°
2026-05-07 17:55 55.63266 13.57219 9804 ft 290 kts 27°
2026-05-07 17:55 55.65096 13.58941 10368 ft 309 kts 28°
2026-05-07 17:55 55.67045 13.60793 10917 ft 328 kts 28°
2026-05-07 17:55 55.69103 13.62763 11388 ft 346 kts 28°
2026-05-07 17:56 55.71249 13.64828 11987 ft 358 kts 28°
2026-05-07 17:56 55.73446 13.66952 12847 ft 363 kts 28°
2026-05-07 17:56 55.75681 13.69117 13661 ft 368 kts 28°
2026-05-07 17:56 55.77916 13.71286 14447 ft 374 kts 28°
2026-05-07 17:57 55.80199 13.73505 15179 ft 379 kts 28°
2026-05-07 17:57 55.81741 13.75005 15659 ft 383 kts 28°
2026-05-07 17:57 55.84878 13.78062 16585 ft 390 kts 28°
2026-05-07 17:57 55.87247 13.80374 17325 ft 395 kts 28°
2026-05-07 17:58 55.89663 13.82738 17969 ft 400 kts 27°
2026-05-07 17:58 55.92120 13.85144 18597 ft 405 kts 27°
2026-05-07 17:58 55.94594 13.87569 19278 ft 409 kts 27°
2026-05-07 17:58 55.97080 13.90009 19958 ft 413 kts 28°
2026-05-07 17:59 55.99583 13.92472 20613 ft 416 kts 28°
2026-05-07 17:59 56.02122 13.94974 21277 ft 419 kts 28°
2026-05-07 17:59 56.04658 13.97477 21913 ft 422 kts 27°
2026-05-07 17:59 56.07249 14.00039 22512 ft 426 kts 27°
2026-05-07 18:00 56.09826 14.02591 23073 ft 430 kts 27°
2026-05-07 18:00 56.12453 14.05197 23635 ft 433 kts 27°
2026-05-07 18:00 56.15095 14.07819 24183 ft 436 kts 27°
2026-05-07 18:00 56.17741 14.10449 24708 ft 440 kts 28°
2026-05-07 18:01 56.20403 14.13098 25227 ft 442 kts 28°
2026-05-07 18:01 56.23075 14.15763 25728 ft 445 kts 28°
2026-05-07 18:01 56.25807 14.18495 26226 ft 448 kts 28°
2026-05-07 18:01 56.28515 14.21207 26689 ft 450 kts 28°
2026-05-07 18:02 56.33959 14.26674 27560 ft 454 kts 27°
2026-05-07 18:02 56.36742 14.29474 27963 ft 456 kts 27°
2026-05-07 18:02 56.39502 14.32257 28332 ft 458 kts 27°
2026-05-07 18:03 56.42265 14.35047 28669 ft 460 kts 27°
2026-05-07 18:03 56.45050 14.37864 28985 ft 463 kts 27°
2026-05-07 18:03 56.47852 14.40702 29293 ft 465 kts 27°
2026-05-07 18:03 56.50673 14.43564 29589 ft 466 kts 27°
2026-05-07 18:04 56.53494 14.46430 29865 ft 468 kts 27°
2026-05-07 18:04 56.56327 14.49316 30133 ft 470 kts 27°
2026-05-07 18:04 56.59165 14.52211 30379 ft 471 kts 27°
2026-05-07 18:04 56.62011 14.55119 30602 ft 473 kts 27°
2026-05-07 18:05 56.64851 14.58024 30855 ft 473 kts 27°
2026-05-07 18:05 56.67717 14.60965 31281 ft 469 kts 27°
2026-05-07 18:05 56.70486 14.63825 32135 ft 456 kts 28°
2026-05-07 18:05 56.73068 14.67062 32968 ft 446 kts 36°
2026-05-07 18:06 56.75478 14.70484 33493 ft 442 kts 37°
2026-05-07 18:06 56.77879 14.73979 33834 ft 442 kts 37°
2026-05-07 18:06 56.80253 14.77438 34138 ft 442 kts 37°
2026-05-07 18:06 56.82645 14.80913 34465 ft 442 kts 37°
2026-05-07 18:07 56.85059 14.84412 34776 ft 441 kts 36°
2026-05-07 18:07 56.87449 14.87871 35018 ft 441 kts 36°
2026-05-07 18:07 56.89839 14.91328 35224 ft 442 kts 36°
2026-05-07 18:07 56.92250 14.94817 35415 ft 443 kts 36°
2026-05-07 18:08 56.94663 14.98306 35620 ft 444 kts 36°
2026-05-07 18:08 56.97063 15.01786 35822 ft 444 kts 36°
2026-05-07 18:08 56.99491 15.05314 35996 ft 445 kts 36°
2026-05-07 18:08 57.01917 15.08844 36140 ft 447 kts 36°
2026-05-07 18:09 57.04345 15.12377 36273 ft 449 kts 37°
2026-05-07 18:09 57.06770 15.15920 36452 ft 450 kts 36°
2026-05-07 18:09 57.09211 15.19491 36627 ft 451 kts 37°
2026-05-07 18:09 57.11655 15.23072 36838 ft 452 kts 37°
2026-05-07 18:10 57.14127 15.26697 37041 ft 453 kts 36°
2026-05-07 18:10 57.16595 15.30325 37228 ft 454 kts 37°
2026-05-07 18:10 57.19045 15.33932 37410 ft 456 kts 37°
2026-05-07 18:10 57.21524 15.37589 37588 ft 457 kts 37°
2026-05-07 18:11 57.23974 15.41212 37720 ft 459 kts 37°
2026-05-07 18:11 57.25642 15.43679 37821 ft 460 kts 37°
2026-05-07 18:11 57.28960 15.48595 38046 ft 461 kts 37°
2026-05-07 18:11 57.31455 15.52301 38233 ft 461 kts 37°
2026-05-07 18:12 57.33952 15.56019 38393 ft 462 kts 37°
2026-05-07 18:12 57.36452 15.59746 38526 ft 463 kts 37°
2026-05-07 18:12 57.38946 15.63472 38702 ft 463 kts 37°
2026-05-07 18:12 57.41418 15.67166 38950 ft 461 kts 38°
2026-05-07 18:13 57.43897 15.70881 39082 ft 461 kts 38°
2026-05-07 18:13 57.48895 15.78397 39076 ft 463 kts 38°
2026-05-07 18:14 57.53856 15.85879 39081 ft 463 kts 38°
2026-05-07 18:14 57.58845 15.93433 39091 ft 464 kts 38°
2026-05-07 18:15 57.63820 16.00995 39082 ft 464 kts 38°
2026-05-07 18:15 57.68811 16.08606 39097 ft 464 kts 37°
2026-05-07 18:16 57.73765 16.16189 39103 ft 464 kts 37°
2026-05-07 18:16 57.78732 16.23820 39106 ft 464 kts 37°
2026-05-07 18:17 57.83692 16.31466 39109 ft 464 kts 37°
2026-05-07 18:17 57.88657 16.39146 39032 ft 465 kts 37°
2026-05-07 18:17 57.91137 16.42995 38795 ft 465 kts 37°
2026-05-07 18:18 57.93609 16.46841 38559 ft 463 kts 37°
2026-05-07 18:18 57.96070 16.50675 38353 ft 463 kts 37°
2026-05-07 18:18 57.98552 16.54548 38143 ft 461 kts 37°
2026-05-07 18:18 58.01000 16.58379 37780 ft 457 kts 37°
2026-05-07 18:19 58.03399 16.62139 37224 ft 456 kts 36°
2026-05-07 18:19 58.05846 16.65981 36633 ft 456 kts 37°
2026-05-07 18:19 58.08255 16.69774 36172 ft 453 kts 36°
2026-05-07 18:19 58.10661 16.73567 35810 ft 451 kts 36°
2026-05-07 18:20 58.13054 16.77342 35397 ft 449 kts 36°
2026-05-07 18:20 58.15430 16.81098 34931 ft 447 kts 36°
2026-05-07 18:20 58.17793 16.84834 34287 ft 446 kts 35°
2026-05-07 18:20 58.20184 16.88618 33526 ft 447 kts 36°
2026-05-07 18:21 58.22539 16.92351 32805 ft 447 kts 36°
2026-05-07 18:21 58.24891 16.96093 32233 ft 443 kts 36°
2026-05-07 18:21 58.27235 16.99834 31666 ft 440 kts 36°
2026-05-07 18:21 58.29553 17.03536 31092 ft 437 kts 36°
2026-05-07 18:22 58.31876 17.07259 30500 ft 432 kts 36°
2026-05-07 18:22 58.33383 17.09676 30008 ft 429 kts 36°
2026-05-07 18:22 58.36392 17.14507 28903 ft 423 kts 36°
2026-05-07 18:22 58.38595 17.18053 28069 ft 419 kts 36°
2026-05-07 18:23 58.40794 17.21601 27233 ft 414 kts 36°
2026-05-07 18:23 58.42974 17.25119 26407 ft 411 kts 36°
2026-05-07 18:23 58.45151 17.28633 25772 ft 408 kts 36°
2026-05-07 18:23 58.47291 17.32101 25264 ft 404 kts 36°
2026-05-07 18:24 58.49424 17.35563 24730 ft 401 kts 36°
2026-05-07 18:24 58.51539 17.38998 24247 ft 398 kts 36°
2026-05-07 18:24 58.53601 17.42357 23783 ft 396 kts 36°
2026-05-07 18:24 58.55696 17.45774 23297 ft 393 kts 36°
2026-05-07 18:25 58.57760 17.49142 22819 ft 390 kts 36°
2026-05-07 18:25 58.59800 17.52477 22351 ft 387 kts 36°
2026-05-07 18:25 58.61838 17.55817 21875 ft 384 kts 36°
2026-05-07 18:25 58.63831 17.59086 21409 ft 381 kts 36°
2026-05-07 18:26 58.65843 17.62394 20933 ft 379 kts 36°
2026-05-07 18:26 58.67832 17.65669 20454 ft 375 kts 36°
2026-05-07 18:26 58.69778 17.68878 20041 ft 371 kts 36°
2026-05-07 18:26 58.71736 17.72112 19581 ft 368 kts 37°
2026-05-07 18:27 58.73656 17.75287 19147 ft 365 kts 37°
2026-05-07 18:27 58.75549 17.78424 18705 ft 362 kts 37°
2026-05-07 18:27 58.77454 17.81585 18260 ft 359 kts 37°
2026-05-07 18:27 58.79317 17.84679 17824 ft 356 kts 36°
2026-05-07 18:28 58.81251 17.87587 17372 ft 351 kts 30°
2026-05-07 18:28 58.83298 17.90051 17118 ft 339 kts 24°
2026-05-07 18:28 58.85319 17.92055 16966 ft 325 kts 21°
2026-05-07 18:28 58.87338 17.93954 16724 ft 318 kts 21°
2026-05-07 18:29 58.89317 17.95796 16471 ft 317 kts 21°
2026-05-07 18:29 58.91293 17.97610 16216 ft 314 kts 17°
2026-05-07 18:29 58.93353 17.98727 15961 ft 308 kts
2026-05-07 18:29 58.95461 17.99394 15713 ft 305 kts
2026-05-07 18:30 58.97550 18.00012 15459 ft 304 kts
2026-05-07 18:30 58.99617 18.00662 15198 ft 303 kts
2026-05-07 18:30 59.01677 18.01345 14945 ft 302 kts
2026-05-07 18:30 59.03758 18.02065 14663 ft 301 kts
2026-05-07 18:31 59.05803 18.02789 14428 ft 301 kts
2026-05-07 18:31 59.07859 18.03528 14177 ft 300 kts
2026-05-07 18:31 59.09870 18.04258 13913 ft 298 kts
2026-05-07 18:31 59.11917 18.05006 13649 ft 296 kts
2026-05-07 18:32 59.13915 18.05738 13391 ft 294 kts
2026-05-07 18:32 59.15917 18.06471 13141 ft 292 kts
2026-05-07 18:32 59.17894 18.07198 12853 ft 290 kts
2026-05-07 18:32 59.19881 18.07928 12600 ft 288 kts
2026-05-07 18:33 59.21830 18.08647 12334 ft 287 kts
2026-05-07 18:33 59.23793 18.09372 12078 ft 286 kts
2026-05-07 18:33 59.25722 18.10083 11778 ft 284 kts
2026-05-07 18:33 59.27656 18.10798 11516 ft 283 kts
2026-05-07 18:34 59.29592 18.11516 11266 ft 281 kts
2026-05-07 18:34 59.31505 18.12225 11152 ft 280 kts
2026-05-07 18:34 59.33410 18.12932 11148 ft 281 kts
2026-05-07 18:34 59.35332 18.13567 11146 ft 279 kts
2026-05-07 18:35 59.37262 18.14033 11144 ft 279 kts
2026-05-07 18:35 59.39173 18.14457 11145 ft 279 kts
2026-05-07 18:35 59.41099 18.14880 11133 ft 277 kts
2026-05-07 18:35 59.42996 18.15304 10832 ft 275 kts
2026-05-07 18:36 59.44907 18.15727 10381 ft 275 kts
2026-05-07 18:36 59.46784 18.16136 9984 ft 273 kts
2026-05-07 18:36 59.48663 18.16479 9596 ft 270 kts 360°
2026-05-07 18:36 59.50521 18.16597 9203 ft 268 kts 358°
2026-05-07 18:37 59.52381 18.16645 8805 ft 267 kts 358°
2026-05-07 18:37 59.54229 18.16667 8387 ft 266 kts 358°
2026-05-07 18:37 59.56055 18.16675 7985 ft 264 kts 358°
2026-05-07 18:37 59.57895 18.16667 7582 ft 263 kts 358°
2026-05-07 18:38 59.59690 18.16647 7188 ft 261 kts 358°
2026-05-07 18:38 59.61507 18.16612 6767 ft 261 kts 358°
2026-05-07 18:38 59.63305 18.16564 6376 ft 259 kts 358°
2026-05-07 18:38 59.65102 18.16496 5982 ft 257 kts 358°
2026-05-07 18:39 59.66884 18.16409 5596 ft 256 kts 358°
2026-05-07 18:39 59.68656 18.16298 5189 ft 255 kts 358°
2026-05-07 18:39 59.70419 18.16161 4794 ft 254 kts 358°
2026-05-07 18:39 59.72141 18.16003 4613 ft 245 kts 358°
2026-05-07 18:40 59.73794 18.15835 4441 ft 236 kts 358°
2026-05-07 18:40 59.75410 18.15662 4280 ft 228 kts 358°
2026-05-07 18:40 59.76962 18.15481 4119 ft 220 kts 358°
2026-05-07 18:40 59.78468 18.15286 3994 ft 212 kts 356°
2026-05-07 18:41 59.79881 18.14528 3859 ft 215 kts 329°
2026-05-07 18:41 59.80912 18.12381 3535 ft 220 kts 304°
2026-05-07 18:41 59.81658 18.09719 3224 ft 222 kts 299°
2026-05-07 18:41 59.82281 18.06950 2911 ft 224 kts 285°
2026-05-07 18:42 59.82235 18.03908 2642 ft 222 kts 248°
2026-05-07 18:42 59.81352 18.01516 2514 ft 208 kts 211°
2026-05-07 18:42 59.80076 18.00652 2503 ft 189 kts 181°
2026-05-07 18:42 59.78780 18.00511 2508 ft 187 kts 179°
2026-05-07 18:43 59.77464 18.00309 2512 ft 187 kts 182°
2026-05-07 18:43 59.76176 17.99968 2462 ft 188 kts 185°
2026-05-07 18:43 59.74901 17.99531 2181 ft 187 kts 186°
2026-05-07 18:43 59.73628 17.99057 1904 ft 184 kts 186°
2026-05-07 18:44 59.72387 17.98597 1638 ft 177 kts 186°
2026-05-07 18:44 59.71234 17.98175 1413 ft 163 kts 186°
2026-05-07 18:44 59.70169 17.97790 1193 ft 148 kts 186°
2026-05-07 18:44 59.69210 17.97444 986 ft 134 kts 186°
2026-05-07 18:45 59.68328 17.97126 806 ft 125 kts 186°
2026-05-07 18:45 59.67481 17.96815 664 ft 125 kts 187°
2026-05-07 18:45 59.66625 17.96508 504 ft 125 kts 185°
2026-05-07 18:45 59.65769 17.96205 335 ft 125 kts 187°
2026-05-07 18:46 59.64914 17.95897 160 ft 124 kts 187°
2026-05-07 18:46 59.64113 17.95611 111 ft 99 kts 189°
2026-05-07 18:46 59.63586 17.95419 121 ft 58 kts 192°
2026-05-07 18:46 59.63351 17.95213 127 ft 24 kts 220°
2026-05-07 18:47 59.63245 17.95016 129 ft 14 kts 250°
2026-05-07 18:47 59.63311 17.94909 127 ft 16 kts
2026-05-07 18:47 59.63436 17.94954 124 ft 19 kts 11°
2026-05-07 18:47 59.63578 17.95007 120 ft 21 kts 10°
2026-05-07 18:48 59.63735 17.95062 116 ft 23 kts 10°
2026-05-07 18:48 59.63901 17.95123 112 ft 25 kts 10°
2026-05-07 18:48 59.64077 17.95186 109 ft 25 kts 11°
2026-05-07 18:48 59.64254 17.95249 107 ft 26 kts 11°
2026-05-07 18:49 59.64433 17.95315 106 ft 26 kts 11°
2026-05-07 18:49 59.64607 17.95380 106 ft 24 kts 11°
2026-05-07 18:49 59.64769 17.95441 107 ft 22 kts
2026-05-07 18:49 59.64921 17.95492 108 ft 22 kts 11°
2026-05-07 18:50 59.65076 17.95492 110 ft 23 kts 347°
2026-05-07 18:50 59.65236 17.95408 115 ft 24 kts 345°
2026-05-07 18:50 59.65403 17.95321 119 ft 25 kts 345°
2026-05-07 18:50 59.65571 17.95233 123 ft 25 kts 345°
2026-05-07 18:51 59.65721 17.95148 126 ft 19 kts 332°
2026-05-07 18:51 59.65740 17.94926 127 ft 17 kts 256°
2026-05-07 18:51 59.65711 17.94695 127 ft 17 kts 256°
2026-05-07 18:51 59.65682 17.94468 125 ft 17 kts 256°
2026-05-07 18:52 59.65652 17.94232 123 ft 17 kts 256°
2026-05-07 18:52 59.65620 17.93985 119 ft 19 kts 256°
2026-05-07 18:52 59.65564 17.93869 117 ft 12 kts 169°
2026-05-07 18:52 59.65492 17.93897 117 ft 6 kts 199°
2026-05-07 18:53 59.65470 17.93803 116 ft 8 kts 255°
2026-05-07 18:53 59.65464 17.93750 115 ft 0 kts 256°